Manylion cais “Temporary Accommodation

Hanes y digwyddiad

Mae'r tabl hwn yn dangos manylion technegol y digwyddiadau mewnol a ddigwyddodd i'r cais hwn ar WhatDoTheyKnow. Gallai hwn gael ei ddefnyddio i gynhyrchu gwybodaeth am ba mor gyflym y mae awdurdodau yn ymateb i geisiadau, nifer y ceisiadau sy'n gofyn am ymateb drwy'r post a llawer mwy.

Caveat Emptor! Er mwyn defnyddio'r data hwn mewn ffordd anrhydeddus, bydd angen gwybodaeth fewnol dda o ymddygiad defnyddwyr ar WhatDoTheyKnow. Nid yw sut, pam a chan bwy y bydd ceisiadau yn cael eu categoreiddio yn syml, a bydd gwallau defnyddiwr ac amwysedd. Bydd angen i chi hefyd ddeall cyfraith Rhyddid Gwybodaeth, a sut y mae awdurdodau yn ei defnyddio. Yn ogystal bydd angen i chi fod yn ystadegydd prin. Cysylltwch â ni gyda chwestiynau.

id event_type created_at described_state last_described_at calculated_state link
2595572  set_embargo  2017-10-22 15:36:56 +0100         
2595573  sent  2017-10-22 15:36:56 +0100  waiting_response  2017-10-22 15:36:57 +0100  waiting_response  outgoing  
2595576  response  2017-10-22 15:41:01 +0100  waiting_response  2017-10-23 18:27:03 +0100  waiting_response  incoming  
2636312  overdue  2017-11-18 00:00:00 +0000         
2638755  response  2017-11-20 17:59:50 +0000        incoming  
2638756  response  2017-11-20 18:00:54 +0000        incoming  
2700847  embargo_expiring  2018-01-14 00:00:00 +0000         
2700908  set_embargo  2018-01-14 13:13:37 +0000         
3887589  embargo_expiring  2019-01-13 00:00:00 +0000         
3927879  expire_embargo  2019-01-21 00:00:05 +0000         
3927917  edit  2019-01-21 03:45:10 +0000         
3927918  edit  2019-01-21 03:45:10 +0000         
3927919  edit  2019-01-21 03:45:10 +0000         
3927920  edit  2019-01-21 03:45:10 +0000         
3927921  edit  2019-01-21 03:45:10 +0000         
3927922  edit  2019-01-21 03:45:10 +0000         
3927923  edit  2019-01-21 03:45:10 +0000         
3927924  edit  2019-01-21 03:45:10 +0000         
3927925  edit  2019-01-21 03:45:10 +0000         
3927926  edit  2019-01-21 03:45:10 +0000         
3928777  edit  2019-01-21 03:45:43 +0000         
3928778  edit  2019-01-21 03:45:43 +0000         
3928779  edit  2019-01-21 03:45:43 +0000         
3928780  edit  2019-01-21 03:45:43 +0000         
3928781  edit  2019-01-21 03:45:43 +0000         
3928782  edit  2019-01-21 03:45:43 +0000         
3928783  edit  2019-01-21 03:45:43 +0000         
3928784  edit  2019-01-21 03:45:43 +0000         
3928785  edit  2019-01-21 03:45:43 +0000         
3928786  edit  2019-01-21 03:45:43 +0000         
3928787  edit  2019-01-21 03:45:44 +0000         
3928788  edit  2019-01-21 03:45:44 +0000         
3928789  edit  2019-01-21 03:45:44 +0000         
3928790  edit  2019-01-21 03:45:44 +0000         
3928791  edit  2019-01-21 03:45:44 +0000         
3928792  edit  2019-01-21 03:45:44 +0000         
3928793  edit  2019-01-21 03:45:44 +0000         
3928794  edit  2019-01-21 03:45:44 +0000         
3928795  edit  2019-01-21 03:45:44 +0000         
3928796  edit  2019-01-21 03:45:44 +0000         

Yma mae wedi ei ddisgrifio yn golygu pan fydd defnyddiwr yn dewis statws ar gyfer y cais, a statws y digwyddiad mwyaf diweddar wedi ei diweddaru statws i'r gwerth hwnnw. Wedyn mae wedi'i gyfrifo yn cael ei dybio gan WhatDoTheyKnow ar gyfer digwyddiadau canolradd, na chawsant ddisgrifiad penodol gan ddefnyddiwr. Gweler awgrymiadau chwilio am ddisgrifiad o'r cyflyrau.

You can get this page in computer-readable format as part of the main JSON page for the request. See the API documentation.